TimeCST,TemperatureF,Dew PointF,Humidity,Sea Level PressureIn,VisibilityMPH,Wind Direction,Wind SpeedMPH,Gust SpeedMPH,PrecipitationIn,Events,Conditions,WindDirDegrees,DateUTC
12:56 AM,45.9,41.0,83,29.82,10.0,WNW,10.4,-,N/A,,Overcast,300,2012-12-18 06:56:00
1:56 AM,45.9,39.9,80,29.84,10.0,NW,10.4,-,N/A,,Overcast,320,2012-12-18 07:56:00
2:33 AM,46.4,39.2,76,29.86,10.0,NW,8.1,-,N/A,,Overcast,320,2012-12-18 08:33:00
2:56 AM,45.9,38.8,76,29.86,10.0,NW,4.6,-,N/A,,Overcast,310,2012-12-18 08:56:00
3:26 AM,44.6,39.2,81,29.87,10.0,Calm,Calm,-,N/A,,Overcast,0,2012-12-18 09:26:00
3:56 AM,43.9,38.8,82,29.86,10.0,West,4.6,-,N/A,,Mostly Cloudy,270,2012-12-18 09:56:00
4:56 AM,41.9,38.8,89,29.88,10.0,Calm,Calm,-,N/A,,Mostly Cloudy,0,2012-12-18 10:56:00
5:56 AM,41.9,37.9,86,29.92,10.0,Calm,Calm,-,N/A,,Mostly Cloudy,0,2012-12-18 11:56:00
6:40 AM,42.8,37.4,81,29.93,10.0,Calm,Calm,-,N/A,,Scattered Clouds,0,2012-12-18 12:40:00
6:56 AM,39.9,36.9,89,29.93,10.0,Calm,Calm,-,N/A,,Clear,0,2012-12-18 12:56:00
7:56 AM,41.9,37.9,86,29.94,10.0,Calm,Calm,-,N/A,,Partly Cloudy,0,2012-12-18 13:56:00
8:56 AM,45.9,36.9,71,29.96,10.0,Calm,Calm,-,N/A,,Clear,0,2012-12-18 14:56:00
9:56 AM,48.9,37.9,66,29.97,10.0,South,5.8,-,N/A,,Clear,190,2012-12-18 15:56:00
10:56 AM,50.9,37.9,61,29.96,10.0,South,8.1,-,N/A,,Clear,180,2012-12-18 16:56:00
11:56 AM,52.9,37.9,57,29.94,10.0,Variable,6.9,-,N/A,,Clear,0,2012-12-18 17:56:00
12:56 PM,55.9,37.9,51,29.93,10.0,Variable,6.9,-,N/A,,Clear,0,2012-12-18 18:56:00
1:56 PM,57.9,36.9,45,29.91,10.0,South,4.6,-,N/A,,Clear,180,2012-12-18 19:56:00
2:56 PM,57.9,34.9,42,29.89,10.0,SSW,8.1,-,N/A,,Clear,210,2012-12-18 20:56:00
3:56 PM,56.8,36.0,46,29.89,10.0,SSW,10.4,-,N/A,,Clear,210,2012-12-18 21:56:00
4:56 PM,50.9,36.9,59,29.88,10.0,South,3.5,-,N/A,,Clear,190,2012-12-18 22:56:00
5:56 PM,48.9,36.9,63,29.90,10.0,South,4.6,-,N/A,,Clear,180,2012-12-18 23:56:00
6:56 PM,47.8,36.9,66,29.92,10.0,Calm,Calm,-,N/A,,Clear,0,2012-12-19 00:56:00
7:56 PM,43.9,36.9,76,29.92,10.0,Calm,Calm,-,N/A,,Clear,0,2012-12-19 01:56:00
8:56 PM,43.9,36.9,76,29.94,10.0,Calm,Calm,-,N/A,,Clear,0,2012-12-19 02:56:00
9:56 PM,47.8,37.9,69,29.95,10.0,SSW,8.1,-,N/A,,Clear,200,2012-12-19 03:56:00
10:56 PM,46.9,37.9,71,29.95,10.0,SSW,8.1,-,N/A,,Clear,200,2012-12-19 04:56:00
11:56 PM,46.9,37.9,71,29.95,10.0,Calm,Calm,-,N/A,,Clear,0,2012-12-19 05:56:00